Time,TemperatureF,DewpointF,PressureIn,WindDirection,WindDirectionDegrees,WindSpeedMPH,WindSpeedGustMPH,Humidity,HourlyPrecipIn,Conditions,Clouds,dailyrainin,SoftwareType,DateUTC
2013-07-07 00:00:00,78.4,65.2,29.95,WNW,296,1.0,1.0,64,0.00,,,0.00,Wunderground v.1.15,2013-07-07 04:00:00,
2013-07-07 00:05:00,78.5,65.3,29.95,WNW,299,2.0,2.0,64,0.00,,,0.00,Wunderground v.1.15,2013-07-07 04:05:00,
2013-07-07 00:10:00,78.6,65.4,29.95,NW,310,2.0,2.0,64,0.00,,,0.00,Wunderground v.1.15,2013-07-07 04:10:00,
2013-07-07 00:20:00,78.6,65.4,29.95,WNW,301,1.0,1.0,64,0.00,,,0.00,Wunderground v.1.15,2013-07-07 04:20:00,
2013-07-07 00:30:00,78.4,65.2,29.95,WNW,298,1.0,1.0,64,0.00,,,0.00,Wunderground v.1.15,2013-07-07 04:30:00,
2013-07-07 00:35:00,78.2,65.5,29.95,WNW,298,1.0,1.0,65,0.00,,,0.00,Wunderground v.1.15,2013-07-07 04:35:00,
2013-07-07 00:40:00,78.1,65.4,29.95,WNW,298,1.0,1.0,65,0.00,,,0.00,Wunderground v.1.15,2013-07-07 04:40:00,
2013-07-07 00:45:00,78.0,65.7,29.95,WNW,298,1.0,1.0,66,0.00,,,0.00,Wunderground v.1.15,2013-07-07 04:45:00,
2013-07-07 00:55:00,77.8,66.0,29.96,NNW,340,1.0,2.0,67,0.00,,,0.00,Wunderground v.1.15,2013-07-07 04:55:00,
2013-07-07 01:05:00,77.6,65.8,29.96,NW,316,0.0,0.0,67,0.00,,,0.00,Wunderground v.1.15,2013-07-07 05:05:00,
2013-07-07 01:10:00,77.5,66.1,29.97,NW,316,0.0,0.0,68,0.00,,,0.00,Wunderground v.1.15,2013-07-07 05:10:00,
2013-07-07 01:15:00,77.4,66.0,29.97,NW,316,0.0,0.0,68,0.00,,,0.00,Wunderground v.1.15,2013-07-07 05:15:00,
2013-07-07 01:25:00,77.1,65.7,29.97,NW,316,1.0,1.0,68,0.00,,,0.00,Wunderground v.1.15,2013-07-07 05:25:00,
2013-07-07 01:35:00,76.9,66.0,29.97,NW,316,0.0,0.0,69,0.00,,,0.00,Wunderground v.1.15,2013-07-07 05:35:00,
2013-07-07 01:40:00,76.8,65.9,29.97,NW,316,1.0,1.0,69,0.00,,,0.00,Wunderground v.1.15,2013-07-07 05:40:00,
2013-07-07 01:50:00,76.6,66.1,29.97,NW,316,1.0,1.0,70,0.00,,,0.00,Wunderground v.1.15,2013-07-07 05:50:00,
2013-07-07 01:55:00,76.5,66.0,29.97,NW,316,0.0,0.0,70,0.00,,,0.00,Wunderground v.1.15,2013-07-07 05:55:00,
2013-07-07 02:00:00,76.2,66.1,29.97,NW,316,0.0,0.0,71,0.00,,,0.00,Wunderground v.1.15,2013-07-07 06:00:00,
2013-07-07 02:05:00,76.0,66.3,29.97,NW,316,0.0,0.0,72,0.00,,,0.00,Wunderground v.1.15,2013-07-07 06:05:00,
2013-07-07 02:15:00,75.7,66.8,29.97,NW,316,0.0,0.0,74,0.00,,,0.00,Wunderground v.1.15,2013-07-07 06:15:00,
2013-07-07 02:20:00,75.5,67.0,29.97,NW,316,0.0,0.0,75,0.00,,,0.00,Wunderground v.1.15,2013-07-07 06:20:00,
2013-07-07 02:25:00,75.3,66.8,29.97,NW,316,0.0,0.0,75,0.00,,,0.00,Wunderground v.1.15,2013-07-07 06:25:00,
2013-07-07 02:35:00,75.1,67.0,29.96,NW,316,0.0,0.0,76,0.00,,,0.00,Wunderground v.1.15,2013-07-07 06:35:00,
2013-07-07 02:40:00,75.0,67.3,29.96,NW,316,0.0,0.0,77,0.00,,,0.00,Wunderground v.1.15,2013-07-07 06:40:00,
2013-07-07 02:50:00,74.8,67.5,29.96,NW,316,0.0,0.0,78,0.00,,,0.00,Wunderground v.1.15,2013-07-07 06:50:00,
2013-07-07 02:55:00,74.8,67.1,29.96,NW,316,0.0,0.0,77,0.00,,,0.00,Wunderground v.1.15,2013-07-07 06:55:00,
2013-07-07 03:05:00,74.7,67.4,29.96,NW,316,0.0,0.0,78,0.00,,,0.00,Wunderground v.1.15,2013-07-07 07:05:00,
2013-07-07 03:15:00,74.0,67.4,29.96,NW,316,0.0,0.0,80,0.00,,,0.00,Wunderground v.1.15,2013-07-07 07:15:00,
2013-07-07 03:20:00,73.9,67.3,29.96,NW,316,0.0,0.0,80,0.00,,,0.00,Wunderground v.1.15,2013-07-07 07:20:00,
2013-07-07 03:30:00,73.7,67.5,29.96,NW,316,0.0,0.0,81,0.00,,,0.00,Wunderground v.1.15,2013-07-07 07:30:00,
2013-07-07 03:35:00,73.7,67.1,29.96,NW,316,0.0,0.0,80,0.00,,,0.00,Wunderground v.1.15,2013-07-07 07:35:00,
2013-07-07 03:45:00,74.1,67.2,29.96,NW,316,0.0,0.0,79,0.00,,,0.00,Wunderground v.1.15,2013-07-07 07:45:00,
2013-07-07 03:50:00,74.0,67.4,29.95,NW,316,0.0,0.0,80,0.00,,,0.00,Wunderground v.1.15,2013-07-07 07:50:00,
2013-07-07 04:00:00,73.7,67.5,29.96,NW,316,0.0,0.0,81,0.00,,,0.00,Wunderground v.1.15,2013-07-07 08:00:00,
2013-07-07 04:05:00,73.6,67.4,29.96,NW,316,0.0,0.0,81,0.00,,,0.00,Wunderground v.1.15,2013-07-07 08:05:00,
2013-07-07 04:15:00,74.0,67.4,29.96,NW,316,0.0,0.0,80,0.00,,,0.00,Wunderground v.1.15,2013-07-07 08:15:00,
2013-07-07 04:25:00,74.1,66.8,29.96,NW,316,0.0,0.0,78,0.00,,,0.00,Wunderground v.1.15,2013-07-07 08:25:00,
2013-07-07 04:35:00,74.3,66.6,29.96,NW,316,0.0,0.0,77,0.00,,,0.00,Wunderground v.1.15,2013-07-07 08:35:00,
2013-07-07 04:40:00,74.4,66.7,29.96,NW,316,0.0,0.0,77,0.00,,,0.00,Wunderground v.1.15,2013-07-07 08:40:00,
2013-07-07 04:50:00,74.5,66.8,29.95,NW,316,0.0,0.0,77,0.00,,,0.00,Wunderground v.1.15,2013-07-07 08:50:00,
2013-07-07 05:00:00,74.4,66.7,29.95,NW,316,0.0,0.0,77,0.00,,,0.00,Wunderground v.1.15,2013-07-07 09:00:00,
2013-07-07 05:05:00,74.3,67.0,29.95,NW,316,0.0,0.0,78,0.00,,,0.00,Wunderground v.1.15,2013-07-07 09:05:00,
2013-07-07 05:15:00,73.7,67.1,29.95,NW,316,0.0,0.0,80,0.00,,,0.00,Wunderground v.1.15,2013-07-07 09:15:00,
2013-07-07 05:25:00,73.1,66.9,29.96,NW,316,0.0,0.0,81,0.00,,,0.00,Wunderground v.1.15,2013-07-07 09:25:00,
2013-07-07 05:30:00,73.0,66.8,29.96,NW,316,0.0,0.0,81,0.00,,,0.00,Wunderground v.1.15,2013-07-07 09:30:00,
2013-07-07 05:40:00,73.3,67.1,29.96,NW,316,0.0,0.0,81,0.00,,,0.00,Wunderground v.1.15,2013-07-07 09:40:00,
2013-07-07 05:50:00,73.3,67.1,29.96,NW,316,0.0,0.0,81,0.00,,,0.00,Wunderground v.1.15,2013-07-07 09:50:00,
2013-07-07 05:55:00,73.5,67.3,29.96,NW,316,0.0,0.0,81,0.00,,,0.00,Wunderground v.1.15,2013-07-07 09:55:00,
2013-07-07 06:05:00,73.7,67.5,29.96,NW,316,0.0,0.0,81,0.00,,,0.00,Wunderground v.1.15,2013-07-07 10:05:00,
2013-07-07 06:15:00,74.6,68.0,29.96,NW,316,0.0,0.0,80,0.00,,,0.00,Wunderground v.1.15,2013-07-07 10:15:00,
2013-07-07 06:20:00,75.1,68.1,29.96,NW,316,0.0,0.0,79,0.00,,,0.00,Wunderground v.1.15,2013-07-07 10:20:00,
2013-07-07 06:30:00,77.0,68.1,29.96,NW,316,0.0,0.0,74,0.00,,,0.00,Wunderground v.1.15,2013-07-07 10:30:00,
2013-07-07 06:40:00,77.0,68.9,29.96,NW,316,0.0,0.0,76,0.00,,,0.00,Wunderground v.1.15,2013-07-07 10:40:00,
2013-07-07 06:45:00,77.5,68.6,29.97,WNW,298,0.0,0.0,74,0.00,,,0.00,Wunderground v.1.15,2013-07-07 10:45:00,
2013-07-07 06:55:00,78.3,68.5,29.97,WNW,298,0.0,0.0,72,0.00,,,0.00,Wunderground v.1.15,2013-07-07 10:55:00,
2013-07-07 07:05:00,78.2,68.4,29.97,WNW,298,0.0,1.0,72,0.00,,,0.00,Wunderground v.1.15,2013-07-07 11:05:00,
2013-07-07 07:15:00,78.8,68.6,29.97,NW,311,1.0,1.0,71,0.00,,,0.00,Wunderground v.1.15,2013-07-07 11:15:00,
2013-07-07 07:20:00,79.0,68.4,29.97,NW,309,1.0,1.0,70,0.00,,,0.00,Wunderground v.1.15,2013-07-07 11:20:00,
2013-07-07 07:25:00,79.4,68.3,29.96,NNW,332,1.0,1.0,69,0.00,,,0.00,Wunderground v.1.15,2013-07-07 11:25:00,
2013-07-07 07:35:00,79.7,68.6,29.97,NNW,332,1.0,2.0,69,0.00,,,0.00,Wunderground v.1.15,2013-07-07 11:35:00,
2013-07-07 07:40:00,79.3,68.2,29.97,WNW,282,1.0,1.0,69,0.00,,,0.00,Wunderground v.1.15,2013-07-07 11:40:00,
2013-07-07 07:50:00,79.7,68.2,29.96,WNW,284,1.0,1.0,68,0.00,,,0.00,Wunderground v.1.15,2013-07-07 11:50:00,
2013-07-07 07:55:00,79.9,68.4,29.96,NW,321,1.0,1.0,68,0.00,,,0.00,Wunderground v.1.15,2013-07-07 11:55:00,
2013-07-07 08:05:00,79.7,68.6,29.97,WNW,302,1.0,1.0,69,0.00,,,0.00,Wunderground v.1.15,2013-07-07 12:05:00,
2013-07-07 08:15:00,79.9,68.4,29.97,NNW,327,1.0,2.0,68,0.00,,,0.00,Wunderground v.1.15,2013-07-07 12:15:00,
2013-07-07 08:20:00,80.0,68.9,29.97,NW,321,1.0,1.0,69,0.00,,,0.00,Wunderground v.1.15,2013-07-07 12:20:00,
2013-07-07 08:30:00,80.5,69.0,29.96,WNW,299,1.0,1.0,68,0.00,,,0.00,Wunderground v.1.15,2013-07-07 12:30:00,
2013-07-07 08:35:00,80.5,69.0,29.97,WNW,299,1.0,1.0,68,0.00,,,0.00,Wunderground v.1.15,2013-07-07 12:35:00,
2013-07-07 08:45:00,80.2,69.1,29.96,WNW,299,1.0,2.0,69,0.00,,,0.00,Wunderground v.1.15,2013-07-07 12:45:00,
2013-07-07 08:50:00,80.9,69.3,29.96,WNW,294,1.0,1.0,68,0.00,,,0.00,Wunderground v.1.15,2013-07-07 12:50:00,
2013-07-07 08:55:00,81.9,70.3,29.96,NNW,330,1.0,1.0,68,0.00,,,0.00,Wunderground v.1.15,2013-07-07 12:55:00,
2013-07-07 09:05:00,82.2,70.1,29.96,WNW,294,1.0,2.0,67,0.00,,,0.00,Wunderground v.1.15,2013-07-07 13:05:00,
2013-07-07 09:15:00,82.4,70.3,29.96,WNW,294,1.0,3.0,67,0.00,,,0.00,Wunderground v.1.15,2013-07-07 13:15:00,
2013-07-07 09:20:00,83.8,71.2,29.96,WNW,294,1.0,1.0,66,0.00,,,0.00,Wunderground v.1.15,2013-07-07 13:20:00,
2013-07-07 09:30:00,84.4,70.9,29.96,WNW,294,0.0,0.0,64,0.00,,,0.00,Wunderground v.1.15,2013-07-07 13:30:00,
2013-07-07 09:40:00,85.3,70.3,29.95,WNW,286,1.0,6.0,61,0.00,,,0.00,Wunderground v.1.15,2013-07-07 13:40:00,
2013-07-07 09:45:00,85.8,70.3,29.95,WNW,285,2.0,6.0,60,0.00,,,0.00,Wunderground v.1.15,2013-07-07 13:45:00,
2013-07-07 09:55:00,87.2,71.6,29.95,WNW,302,2.0,3.0,60,0.00,,,0.00,Wunderground v.1.15,2013-07-07 13:55:00,
2013-07-07 10:05:00,87.4,69.8,29.95,West,275,2.0,3.0,56,0.00,,,0.00,Wunderground v.1.15,2013-07-07 14:05:00,
2013-07-07 10:15:00,88.4,70.7,29.95,NW,317,2.0,2.0,56,0.00,,,0.00,Wunderground v.1.15,2013-07-07 14:15:00,
2013-07-07 10:20:00,88.4,70.2,29.95,WNW,303,2.0,3.0,55,0.00,,,0.00,Wunderground v.1.15,2013-07-07 14:20:00,
2013-07-07 10:30:00,88.6,71.4,29.94,NW,312,1.0,2.0,57,0.00,,,0.00,Wunderground v.1.15,2013-07-07 14:30:00,
2013-07-07 10:35:00,88.9,70.6,29.94,NW,318,1.0,3.0,55,0.00,,,0.00,Wunderground v.1.15,2013-07-07 14:35:00,
2013-07-07 10:45:00,89.4,71.1,29.93,NNW,336,1.0,2.0,55,0.00,,,0.00,Wunderground v.1.15,2013-07-07 14:45:00,
2013-07-07 10:55:00,89.4,71.6,29.93,West,263,2.0,2.0,56,0.00,,,0.00,Wunderground v.1.15,2013-07-07 14:55:00,
2013-07-07 11:05:00,89.6,72.3,29.94,NW,307,2.0,6.0,57,0.00,,,0.00,Wunderground v.1.15,2013-07-07 15:05:00,
2013-07-07 11:10:00,89.1,71.9,29.94,West,279,3.0,4.0,57,0.00,,,0.00,Wunderground v.1.15,2013-07-07 15:10:00,
2013-07-07 11:20:00,89.3,72.6,29.93,WNW,285,2.0,2.0,58,0.00,,,0.00,Wunderground v.1.15,2013-07-07 15:20:00,
2013-07-07 11:30:00,88.7,73.0,29.94,NW,314,1.0,2.0,60,0.00,,,0.00,Wunderground v.1.15,2013-07-07 15:30:00,
2013-07-07 11:40:00,88.3,73.1,29.93,NW,312,2.0,2.0,61,0.00,,,0.00,Wunderground v.1.15,2013-07-07 15:40:00,
2013-07-07 11:50:00,88.2,71.6,29.93,NW,321,3.0,4.0,58,0.00,,,0.00,Wunderground v.1.15,2013-07-07 15:50:00,
2013-07-07 11:55:00,88.3,72.7,29.93,NW,311,3.0,4.0,60,0.00,,,0.00,Wunderground v.1.15,2013-07-07 15:55:00,
2013-07-07 12:05:00,88.3,71.6,29.93,WNW,295,2.0,5.0,58,0.00,,,0.00,Wunderground v.1.15,2013-07-07 16:05:00,
2013-07-07 12:10:00,87.7,72.1,29.93,NNW,344,3.0,3.0,60,0.00,,,0.00,Wunderground v.1.15,2013-07-07 16:10:00,
2013-07-07 12:20:00,87.7,72.6,29.93,NW,321,2.0,2.0,61,0.00,,,0.00,Wunderground v.1.15,2013-07-07 16:20:00,
2013-07-07 12:30:00,88.1,73.0,29.93,WNW,298,1.0,1.0,61,0.00,,,0.00,Wunderground v.1.15,2013-07-07 16:30:00,
2013-07-07 12:35:00,88.2,73.0,29.93,West,280,1.0,1.0,61,0.00,,,0.00,Wunderground v.1.15,2013-07-07 16:35:00,
2013-07-07 12:45:00,89.0,73.8,29.93,NNW,333,2.0,2.0,61,0.00,,,0.00,Wunderground v.1.15,2013-07-07 16:45:00,
2013-07-07 12:50:00,89.2,73.5,29.93,WNW,298,2.0,2.0,60,0.00,,,0.00,Wunderground v.1.15,2013-07-07 16:50:00,
2013-07-07 13:00:00,89.3,72.1,29.93,NW,306,2.0,5.0,57,0.00,,,0.00,Wunderground v.1.15,2013-07-07 17:00:00,
2013-07-07 13:10:00,88.9,71.7,29.92,NW,307,2.0,2.0,57,0.00,,,0.00,Wunderground v.1.15,2013-07-07 17:10:00,
2013-07-07 13:15:00,88.6,72.4,29.92,WNW,290,2.0,2.0,59,0.00,,,0.00,Wunderground v.1.15,2013-07-07 17:15:00,
2013-07-07 13:20:00,89.0,72.3,29.92,WNW,284,2.0,2.0,58,0.00,,,0.00,Wunderground v.1.15,2013-07-07 17:20:00,
2013-07-07 13:30:00,89.6,72.9,29.91,West,280,2.0,4.0,58,0.00,,,0.00,Wunderground v.1.15,2013-07-07 17:30:00,
2013-07-07 13:35:00,89.7,73.0,29.91,WNW,282,2.0,4.0,58,0.00,,,0.00,Wunderground v.1.15,2013-07-07 17:35:00,
2013-07-07 13:40:00,90.2,72.4,29.91,WNW,286,2.0,2.0,56,0.00,,,0.00,Wunderground v.1.15,2013-07-07 17:40:00,
2013-07-07 13:50:00,90.2,72.9,29.91,NW,313,2.0,2.0,57,0.00,,,0.00,Wunderground v.1.15,2013-07-07 17:50:00,
2013-07-07 13:55:00,90.2,72.9,29.90,West,273,2.0,2.0,57,0.00,,,0.00,Wunderground v.1.15,2013-07-07 17:55:00,
2013-07-07 14:05:00,90.4,73.6,29.90,WSW,237,1.0,2.0,58,0.00,,,0.00,Wunderground v.1.15,2013-07-07 18:05:00,
2013-07-07 14:15:00,91.3,73.4,29.90,WNW,284,1.0,3.0,56,0.00,,,0.00,Wunderground v.1.15,2013-07-07 18:15:00,
2013-07-07 14:20:00,91.7,72.7,29.89,NNW,327,2.0,2.0,54,0.00,,,0.00,Wunderground v.1.15,2013-07-07 18:20:00,
2013-07-07 14:30:00,91.8,73.3,29.89,SSW,193,2.0,2.0,55,0.00,,,0.00,Wunderground v.1.15,2013-07-07 18:30:00,
2013-07-07 15:13:00,90.8,73.5,29.87,NW,309,1.0,3.0,57,0.00,,,0.00,Wunderground v.1.15,2013-07-07 19:13:00,
2013-07-07 15:20:00,91.4,73.5,29.88,SSW,205,1.0,2.0,56,0.00,,,0.00,Wunderground v.1.15,2013-07-07 19:20:00,
2013-07-07 15:30:00,91.9,74.0,29.88,NW,308,1.0,3.0,56,0.00,,,0.00,Wunderground v.1.15,2013-07-07 19:30:00,
2013-07-07 15:40:00,91.8,73.9,29.88,NW,309,2.0,2.0,56,0.00,,,0.00,Wunderground v.1.15,2013-07-07 19:40:00,
2013-07-07 15:45:00,91.6,74.2,29.88,WNW,289,2.0,2.0,57,0.00,,,0.00,Wunderground v.1.15,2013-07-07 19:45:00,
2013-07-07 15:50:00,91.1,73.7,29.87,North,355,1.0,1.0,57,0.00,,,0.00,Wunderground v.1.15,2013-07-07 19:50:00,
2013-07-07 16:00:00,90.7,74.4,29.88,NW,311,1.0,1.0,59,0.00,,,0.00,Wunderground v.1.15,2013-07-07 20:00:00,
2013-07-07 16:10:00,90.6,73.8,29.88,WNW,290,1.0,1.0,58,0.00,,,0.00,Wunderground v.1.15,2013-07-07 20:10:00,
2013-07-07 16:20:00,90.6,74.3,29.87,NW,319,1.0,2.0,59,0.00,,,0.00,Wunderground v.1.15,2013-07-07 20:20:00,
2013-07-07 16:30:00,90.1,73.8,29.86,NNW,329,1.0,1.0,59,0.00,,,0.00,Wunderground v.1.15,2013-07-07 20:30:00,
2013-07-07 16:40:00,89.5,73.8,29.86,NNW,329,0.0,0.0,60,0.00,,,0.00,Wunderground v.1.15,2013-07-07 20:40:00,
2013-07-07 16:45:00,89.3,73.6,29.87,NNW,329,0.0,0.0,60,0.00,,,0.00,Wunderground v.1.15,2013-07-07 20:45:00,
2013-07-07 16:55:00,88.9,74.2,29.88,NNW,329,0.0,0.0,62,0.00,,,0.00,Wunderground v.1.15,2013-07-07 20:55:00,
2013-07-07 17:05:00,88.7,74.5,29.87,NNW,329,0.0,0.0,63,0.00,,,0.00,Wunderground v.1.15,2013-07-07 21:05:00,
2013-07-07 17:10:00,88.6,74.4,29.87,NNW,329,0.0,0.0,63,0.00,,,0.00,Wunderground v.1.15,2013-07-07 21:10:00,
2013-07-07 17:15:00,88.4,75.1,29.86,NW,323,0.0,3.0,65,0.00,,,0.00,Wunderground v.1.15,2013-07-07 21:15:00,
2013-07-07 17:25:00,87.4,75.5,29.86,SSW,209,1.0,3.0,68,0.00,,,0.00,Wunderground v.1.15,2013-07-07 21:25:00,
2013-07-07 17:30:00,86.7,74.9,29.86,SE,127,1.0,1.0,68,0.00,,,0.00,Wunderground v.1.15,2013-07-07 21:30:00,
2013-07-07 17:40:00,86.0,73.8,29.87,WSW,240,1.0,1.0,67,0.00,,,0.00,Wunderground v.1.15,2013-07-07 21:40:00,
2013-07-07 17:45:00,85.5,73.7,29.87,SSW,196,2.0,2.0,68,0.00,,,0.00,Wunderground v.1.15,2013-07-07 21:45:00,
2013-07-07 17:55:00,84.1,74.5,29.86,NNW,346,2.0,4.0,73,0.00,,,0.00,Wunderground v.1.15,2013-07-07 21:55:00,
2013-07-07 18:00:00,83.2,74.4,29.86,SW,229,1.0,1.0,75,0.00,,,0.00,Wunderground v.1.15,2013-07-07 22:00:00,
2013-07-07 18:05:00,82.5,74.6,29.86,SW,215,0.0,1.0,77,0.00,,,0.00,Wunderground v.1.15,2013-07-07 22:05:00,
2013-07-07 18:15:00,81.8,74.6,29.86,SW,223,0.0,0.0,79,0.00,,,0.00,Wunderground v.1.15,2013-07-07 22:15:00,
2013-07-07 18:25:00,81.4,74.6,29.86,SW,234,0.0,0.0,80,0.00,,,0.00,Wunderground v.1.15,2013-07-07 22:25:00,
2013-07-07 18:35:00,81.1,75.4,29.86,West,267,0.0,0.0,83,0.00,,,0.01,Wunderground v.1.15,2013-07-07 22:35:00,
2013-07-07 18:45:00,80.8,75.2,29.85,West,270,0.0,0.0,83,0.00,,,0.01,Wunderground v.1.15,2013-07-07 22:45:00,
2013-07-07 18:55:00,80.5,74.9,29.85,West,270,0.0,1.0,83,0.00,,,0.01,Wunderground v.1.15,2013-07-07 22:55:00,
2013-07-07 19:00:00,80.5,74.5,29.85,West,270,0.0,0.0,82,0.00,,,0.01,Wunderground v.1.15,2013-07-07 23:00:00,
2013-07-07 19:10:00,80.4,74.4,29.86,West,270,0.0,0.0,82,0.00,,,0.01,Wunderground v.1.15,2013-07-07 23:10:00,
2013-07-07 19:20:00,80.4,74.8,29.87,WNW,286,0.0,0.0,83,0.00,,,0.01,Wunderground v.1.15,2013-07-07 23:20:00,
2013-07-07 19:30:00,80.3,74.3,29.87,WNW,286,0.0,0.0,82,0.00,,,0.01,Wunderground v.1.15,2013-07-07 23:30:00,
2013-07-07 19:35:00,80.2,74.2,29.88,WNW,286,0.0,1.0,82,0.00,,,0.01,Wunderground v.1.15,2013-07-07 23:35:00,
2013-07-07 19:45:00,80.1,73.7,29.87,WNW,286,0.0,0.0,81,0.00,,,0.01,Wunderground v.1.15,2013-07-07 23:45:00,
2013-07-07 19:50:00,80.1,73.7,29.87,WNW,286,0.0,0.0,81,0.00,,,0.01,Wunderground v.1.15,2013-07-07 23:50:00,
2013-07-07 20:00:00,79.9,73.9,29.87,WNW,286,0.0,0.0,82,0.00,,,0.01,Wunderground v.1.15,2013-07-08 00:00:00,
2013-07-07 20:10:00,79.8,73.8,29.87,WNW,286,0.0,0.0,82,0.00,,,0.01,Wunderground v.1.15,2013-07-08 00:10:00,
2013-07-07 20:15:00,79.8,73.8,29.88,WNW,286,0.0,0.0,82,0.00,,,0.01,Wunderground v.1.15,2013-07-08 00:15:00,
2013-07-07 20:25:00,79.6,74.0,29.88,WNW,286,0.0,0.0,83,0.00,,,0.01,Wunderground v.1.15,2013-07-08 00:25:00,
2013-07-07 20:35:00,79.4,73.8,29.88,WNW,286,0.0,0.0,83,0.00,,,0.01,Wunderground v.1.15,2013-07-08 00:35:00,
2013-07-07 20:45:00,79.4,73.8,29.88,WNW,286,0.0,0.0,83,0.00,,,0.01,Wunderground v.1.15,2013-07-08 00:45:00,
2013-07-07 20:50:00,79.4,73.4,29.88,WNW,286,0.0,0.0,82,0.00,,,0.01,Wunderground v.1.15,2013-07-08 00:50:00,
2013-07-07 21:00:00,79.2,73.2,29.88,WNW,286,0.0,0.0,82,0.00,,,0.01,Wunderground v.1.15,2013-07-08 01:00:00,
2013-07-07 21:10:00,79.1,73.1,29.88,WNW,286,0.0,0.0,82,0.00,,,0.01,Wunderground v.1.15,2013-07-08 01:10:00,
2013-07-07 21:20:00,79.1,72.8,29.88,WNW,286,0.0,0.0,81,0.00,,,0.01,Wunderground v.1.15,2013-07-08 01:20:00,
2013-07-07 21:25:00,78.9,72.6,29.88,WNW,286,0.0,0.0,81,0.00,,,0.01,Wunderground v.1.15,2013-07-08 01:25:00,
2013-07-07 21:35:00,78.8,72.5,29.88,WNW,286,0.0,0.0,81,0.00,,,0.01,Wunderground v.1.15,2013-07-08 01:35:00,
2013-07-07 21:40:00,78.7,72.7,29.88,WNW,286,0.0,0.0,82,0.00,,,0.01,Wunderground v.1.15,2013-07-08 01:40:00,
2013-07-07 21:50:00,78.5,72.9,29.89,WNW,289,0.0,0.0,83,0.00,,,0.01,Wunderground v.1.15,2013-07-08 01:50:00,
2013-07-07 22:00:00,78.4,72.4,29.89,WNW,289,0.0,0.0,82,0.00,,,0.01,Wunderground v.1.15,2013-07-08 02:00:00,
2013-07-07 22:05:00,78.3,72.3,29.89,WNW,289,0.0,0.0,82,0.00,,,0.01,Wunderground v.1.15,2013-07-08 02:05:00,
2013-07-07 22:10:00,78.2,72.3,29.89,WNW,289,0.0,0.0,82,0.00,,,0.01,Wunderground v.1.15,2013-07-08 02:10:00,
2013-07-07 22:15:00,78.2,72.3,29.89,WNW,289,0.0,0.0,82,0.00,,,0.01,Wunderground v.1.15,2013-07-08 02:15:00,
2013-07-07 22:25:00,78.0,72.1,29.89,WNW,289,0.0,0.0,82,0.00,,,0.01,Wunderground v.1.15,2013-07-08 02:25:00,
2013-07-07 22:35:00,77.7,72.1,29.89,WNW,289,0.0,0.0,83,0.00,,,0.01,Wunderground v.1.15,2013-07-08 02:35:00,
2013-07-07 22:45:00,77.6,72.4,29.89,WNW,289,0.0,0.0,84,0.00,,,0.01,Wunderground v.1.15,2013-07-08 02:45:00,
2013-07-07 22:50:00,77.5,72.3,29.89,WNW,289,0.0,0.0,84,0.00,,,0.01,Wunderground v.1.15,2013-07-08 02:50:00,
2013-07-07 22:55:00,77.4,72.2,29.89,WNW,289,0.0,0.0,84,0.00,,,0.01,Wunderground v.1.15,2013-07-08 02:55:00,
2013-07-07 23:05:00,77.3,72.4,29.89,WNW,289,0.0,0.0,85,0.00,,,0.01,Wunderground v.1.15,2013-07-08 03:05:00,
2013-07-07 23:15:00,77.2,72.3,29.89,WNW,289,0.0,0.0,85,0.00,,,0.01,Wunderground v.1.15,2013-07-08 03:15:00,
2013-07-07 23:25:00,77.2,72.3,29.89,WNW,289,0.0,0.0,85,0.00,,,0.01,Wunderground v.1.15,2013-07-08 03:25:00,
2013-07-07 23:35:00,77.0,72.1,29.89,WNW,289,0.0,0.0,85,0.00,,,0.01,Wunderground v.1.15,2013-07-08 03:35:00,
2013-07-07 23:45:00,77.1,72.6,29.89,WNW,288,0.0,0.0,86,0.00,,,0.01,Wunderground v.1.15,2013-07-08 03:45:00,
2013-07-07 23:55:00,76.9,72.4,29.88,WNW,288,0.0,0.0,86,0.00,,,0.01,Wunderground v.1.15,2013-07-08 03:55:00,